Weather History for Zephyrhills, FL

Change the Weather History Date:

Friday, November 22, 2013

  Actual Average (KPCM) Record (KPCM)
Temperature  
Mean Temperature 73 °F -  
Max Temperature 82 °F 77 °F 89 °F (1973)
Min Temperature 64 °F 53 °F 30 °F (1937)
Cooling Degree Days 8    
Growing Degree Days 23 (Base 50)    
Moisture  
Dew Point 67 °F    
Average Humidity 87    
Maximum Humidity 100    
Minimum Humidity 51    
Precipitation  
Precipitation 0.00 in - - ()
Sea Level Pressure  
Sea Level Pressure 30.17 in    
Wind  
Wind Speed 6 mph (ENE)    
Max Wind Speed 14 mph    
Max Gust Speed 20 mph    
Visibility 10 miles    
Events Rain    
Averages and records for this station are not official NWS values.
T = Trace of Precipitation, MM = Missing Value Source: NWS Daily Summary

Daily Weather History Graph

Daily Weather History Graph

Search for Another Location

Airport:

Trip Planner

Search our weather history database for the weather conditions in past years. The results will help you decide how hot, cold, wet, or windy it might be!

Date:

Astronomy

Nov. 22, 2013 Rise Set
Actual Time 6:56 AM EST 5:33 PM EST
Civil Twilight 6:31 AM EST 5:58 PM EST
Nautical Twilight 6:02 AM EST 6:27 PM EST
Astronomical Twilight 5:34 AM EST 6:55 PM EST
Moon 9:57 PM EST (11/22) 10:44 AM EST (11/22)
Length of Visible Light 11h 27m
Length of Day
10h 36m
Waning Gibbous, 78% of the Moon is Illuminated
Nov 22
Waning Gibbous
Nov 25
Last Quarter
Dec 2
New
Dec 9
First Quarter
Dec 17
Full

Hourly Weather History & Observations

Time (EST) Temp. Heat Index Dew Point Humidity Pressure Visibility Wind Dir Wind Speed Gust Speed Precip Events Conditions
12:15 AM 68.0 °F - 68.0 °F 100% 30.20 in 7.0 mi North 3.5 mph - N/A   Overcast
12:35 AM 68.0 °F - 68.0 °F 100% 30.20 in 10.0 mi NNE 5.8 mph - N/A   Overcast
12:55 AM 68.0 °F - 68.0 °F 100% 30.20 in 7.0 mi NNE 4.6 mph - N/A   Overcast
1:15 AM 68.0 °F - 68.0 °F 100% 30.19 in 10.0 mi NNE 4.6 mph - N/A   Overcast
1:35 AM 68.0 °F - 68.0 °F 100% 30.19 in 10.0 mi NE 4.6 mph - N/A   Overcast
1:55 AM 68.0 °F - 68.0 °F 100% 30.19 in 10.0 mi NNE 4.6 mph - N/A   Overcast
2:15 AM 68.0 °F - 68.0 °F 100% 30.19 in 10.0 mi NE 4.6 mph - N/A   Overcast
2:35 AM 68.0 °F - 68.0 °F 100% 30.18 in 10.0 mi ENE 6.9 mph - N/A   Mostly Cloudy
2:55 AM 68.0 °F - 68.0 °F 100% 30.18 in 10.0 mi ENE 6.9 mph - N/A   Mostly Cloudy
3:15 AM 68.0 °F - 68.0 °F 100% 30.17 in 10.0 mi ENE 6.9 mph - N/A   Overcast
3:35 AM 68.0 °F - 68.0 °F 100% 30.17 in 10.0 mi ENE 6.9 mph - N/A   Overcast
3:55 AM 68.0 °F - 68.0 °F 100% 30.17 in 10.0 mi ENE 5.8 mph - N/A   Overcast
4:15 AM 68.0 °F - 68.0 °F 100% 30.17 in 10.0 mi NE 5.8 mph - N/A   Overcast
4:35 AM 68.0 °F - 68.0 °F 100% 30.17 in 10.0 mi NNE 3.5 mph - N/A   Overcast
4:55 AM 68.0 °F - 68.0 °F 100% 30.17 in 10.0 mi NNE 4.6 mph - N/A   Mostly Cloudy
5:15 AM 68.0 °F - 68.0 °F 100% 30.18 in 10.0 mi NE 4.6 mph - N/A   Mostly Cloudy
5:35 AM 68.0 °F - 68.0 °F 100% 30.18 in 10.0 mi NNE 4.6 mph - N/A   Overcast
5:55 AM 68.0 °F - 68.0 °F 100% 30.18 in 10.0 mi NNE 3.5 mph - N/A   Overcast
6:15 AM 68.0 °F - 68.0 °F 100% 30.19 in 10.0 mi NNE 3.5 mph - N/A   Overcast
6:35 AM 68.0 °F - 68.0 °F 100% 30.19 in 10.0 mi NE 4.6 mph - N/A   Overcast
6:55 AM 68.0 °F - 68.0 °F 100% 30.19 in 10.0 mi Calm Calm - N/A   Overcast
7:15 AM 68.0 °F - 68.0 °F 100% 30.20 in 7.0 mi NNE 3.5 mph - N/A   Overcast
7:35 AM 68.0 °F - 68.0 °F 100% 30.20 in 7.0 mi NNE 3.5 mph - N/A   Overcast
7:55 AM 68.0 °F - 68.0 °F 100% 30.20 in 10.0 mi NE 5.8 mph - N/A   Overcast
8:15 AM 68.0 °F - 68.0 °F 100% 30.21 in 10.0 mi NE 6.9 mph - N/A   Overcast
8:35 AM 69.8 °F - 69.8 °F 100% 30.21 in 10.0 mi NE 6.9 mph - N/A   Overcast
8:55 AM 71.6 °F - 71.6 °F 100% 30.22 in 10.0 mi NE 6.9 mph - N/A   Mostly Cloudy
9:15 AM 73.4 °F - 73.4 °F 100% 30.22 in 10.0 mi NE 6.9 mph - N/A   Unknown
9:35 AM 77.0 °F - 75.2 °F 94% 30.22 in 10.0 mi ENE 10.4 mph - N/A   Mostly Cloudy
9:55 AM 77.0 °F - 73.4 °F 89% 30.22 in 10.0 mi East 6.9 mph - N/A   Scattered Clouds
10:15 AM 78.8 °F - 73.4 °F 83% 30.22 in 10.0 mi East 9.2 mph 19.6 mph N/A   Clear
10:35 AM 78.8 °F - 71.6 °F 78% 30.22 in 10.0 mi East 9.2 mph 18.4 mph N/A   Clear
10:55 AM 78.8 °F - 68.0 °F 69% 30.21 in 10.0 mi ESE 12.7 mph 17.3 mph N/A   Clear
11:15 AM 80.6 °F 83.2 °F 68.0 °F 65% 30.20 in 10.0 mi East 13.8 mph 17.3 mph N/A   Scattered Clouds
11:35 AM 80.6 °F 83.2 °F 68.0 °F 65% 30.20 in 10.0 mi ESE 9.2 mph - N/A   Scattered Clouds
11:55 AM 80.6 °F 82.7 °F 66.2 °F 61% 30.19 in 10.0 mi East 10.4 mph - N/A   Scattered Clouds
12:15 PM 82.4 °F 83.9 °F 64.4 °F 54% 30.18 in 10.0 mi East 12.7 mph - N/A   Mostly Cloudy
12:35 PM 80.6 °F 82.3 °F 64.4 °F 58% 30.17 in 10.0 mi ENE 8.1 mph - N/A   Mostly Cloudy
12:55 PM 82.4 °F 83.4 °F 62.6 °F 51% 30.16 in 10.0 mi East 9.2 mph - N/A   Mostly Cloudy
1:15 PM 80.6 °F 82.3 °F 64.4 °F 58% 30.16 in 10.0 mi East 9.2 mph - N/A   Mostly Cloudy
1:35 PM 77.0 °F - 68.0 °F 74% 30.15 in 7.0 mi ENE 10.4 mph - N/A Rain Light Rain
1:55 PM 80.6 °F 82.7 °F 66.2 °F 61% 30.15 in 10.0 mi ENE 9.2 mph - N/A   Mostly Cloudy
2:15 PM 80.6 °F 82.3 °F 64.4 °F 58% 30.14 in 10.0 mi East 9.2 mph - N/A   Mostly Cloudy
2:35 PM 78.8 °F - 66.2 °F 65% 30.13 in 10.0 mi ENE 11.5 mph 17.3 mph N/A   Mostly Cloudy
2:55 PM 78.8 °F - 66.2 °F 65% 30.13 in 10.0 mi East 10.4 mph - N/A   Scattered Clouds
3:15 PM 80.6 °F 82.3 °F 64.4 °F 58% 30.13 in 10.0 mi ENE 11.5 mph - N/A   Clear
3:35 PM 80.6 °F 82.3 °F 64.4 °F 58% 30.13 in 10.0 mi East 9.2 mph - N/A   Scattered Clouds
3:55 PM 78.8 °F - 64.4 °F 61% 30.13 in 10.0 mi East 9.2 mph - N/A   Scattered Clouds
4:15 PM 78.8 °F - 66.2 °F 65% 30.13 in 10.0 mi East 6.9 mph - N/A   Scattered Clouds
4:35 PM 78.8 °F - 64.4 °F 61% 30.13 in 10.0 mi East 8.1 mph - N/A   Clear
4:55 PM 77.0 °F - 64.4 °F 65% 30.13 in 10.0 mi East 8.1 mph - N/A   Clear
5:15 PM 77.0 °F - 64.4 °F 65% 30.14 in 10.0 mi East 6.9 mph - N/A   Clear
5:35 PM 73.4 °F - 64.4 °F 73% 30.14 in 10.0 mi East 5.8 mph - N/A   Clear
5:55 PM 73.4 °F - 64.4 °F 73% 30.14 in 10.0 mi ENE 4.6 mph - N/A   Clear
6:15 PM 71.6 °F - 66.2 °F 83% 30.15 in 10.0 mi NE 3.5 mph - N/A   Clear
6:35 PM 71.6 °F - 66.2 °F 83% 30.15 in 10.0 mi NE 3.5 mph - N/A   Mostly Cloudy
6:55 PM 69.8 °F - 68.0 °F 94% 30.15 in 10.0 mi NE 4.6 mph - N/A   Overcast
7:15 PM 69.8 °F - 68.0 °F 94% 30.16 in 10.0 mi ENE 3.5 mph - N/A   Overcast
7:35 PM 69.8 °F - 68.0 °F 94% 30.16 in 10.0 mi ENE 3.5 mph - N/A   Mostly Cloudy
7:55 PM 69.8 °F - 68.0 °F 94% 30.16 in 10.0 mi ENE 3.5 mph - N/A   Overcast
8:15 PM 69.8 °F - 68.0 °F 94% 30.16 in 10.0 mi ENE 4.6 mph - N/A   Overcast
8:35 PM 68.0 °F - 66.2 °F 94% 30.17 in 10.0 mi NE 3.5 mph - N/A   Overcast
8:55 PM 68.0 °F - 66.2 °F 94% 30.17 in 10.0 mi NE 3.5 mph - N/A   Mostly Cloudy
9:15 PM 68.0 °F - 66.2 °F 94% 30.17 in 10.0 mi Calm Calm - N/A   Mostly Cloudy
9:35 PM 68.0 °F - 68.0 °F 100% 30.16 in 10.0 mi NNE 4.6 mph - N/A   Overcast
9:55 PM 66.2 °F - 66.2 °F 100% 30.16 in 10.0 mi NE 4.6 mph - N/A   Overcast
10:15 PM 66.2 °F - 66.2 °F 100% 30.16 in 10.0 mi NE 3.5 mph - N/A   Scattered Clouds
10:35 PM 66.2 °F - 66.2 °F 100% 30.16 in 10.0 mi Calm Calm - N/A   Mostly Cloudy
10:55 PM 64.4 °F - 64.4 °F 100% 30.16 in 10.0 mi NNE 4.6 mph - N/A   Scattered Clouds
11:15 PM 64.4 °F - 64.4 °F 100% 30.15 in 10.0 mi ENE 4.6 mph - N/A   Clear
11:35 PM 64.4 °F - 64.4 °F 100% 30.14 in 10.0 mi ENE 3.5 mph - N/A   Clear
11:55 PM 64.4 °F - 64.4 °F 100% 30.14 in 10.0 mi Calm Calm - N/A   Clear